[[{"header":{"parameterUnit":"m.s-1","parameterCategory":2,"la1":30.2991,"la2":30.254,"lo1":-89.0895,"lo2":-89.0444,"dy":0.0017,"dx":0.0017,"nx":28,"ny":28,"refTime":"2024-06-11T09:00:00:Z","depth":"0","parameterNumber":2,"parameterNumberName":"U-component_of_CURRENTS"},"data":[0,0,0,0,0,0,0,0,0,0,0,0,0,0,0,0,0,0,0,0,0,0,0,0,0,0,0,0,0,0,0,0,0,0,0,0,0,0,0,0,0,0,0,0,0,0,0,0,0,0,0,0,0,0,0,0,0,0,0.3904,0.3907,0,0.4244,0.4248,0.4252,0.4284,0.428,0.4277,0.4273,0.4406,0.4413,0.4419,0,0,0,0,0,0,0,0,0,0,0,0,0,0.3522,0.3527,0.3903,0.3908,0.3912,0.4244,0.4248,0.4253,0.4284,0.428,0.4276,0.4272,0.4404,0.4412,0.442,0,0,0,0,0,0,0,0,0,0,0,0,0,0.3757,0.3529,0.3903,0.3968,0.3977,0.4243,0.4249,0.4254,0.4285,0.428,0.4275,0.427,0.4401,0.4411,0.4421,0.4591,0,0,0.4452,0.4457,0,0,0,0,0,0,0,0,0.3743,0.377,0.3954,0.3964,0.3975,0.4217,0.4163,0.4357,0.4287,0.4168,0.4273,0.4267,0.4328,0.4344,0.4422,0.4597,0.4603,0.4453,0.446,0.4464,0.4467,0,0,0,0,0,0,0,0.3726,0.3757,0.4038,0.3959,0.3972,0.4064,0.4089,0.4202,0.4269,0.4178,0.4181,0.4222,0.4331,0.4412,0.4424,0.4605,0.4453,0.4462,0.4469,0.4473,0.4835,0.4838,0,0,0,0,0,0,0.368,0.3742,0.4027,0.4048,0.3844,0.4074,0.4102,0.4144,0.4273,0.4289,0.4226,0.4222,0.4397,0.4413,0.4429,0.4583,0.4464,0.4474,0.4479,0.4831,0.4836,0.4839,0,0,0,0,0,0,0.3671,0.3702,0.4013,0.3902,0.3948,0.4084,0.4133,0.4153,0.4235,0.4312,0.4322,0.4284,0.4394,0.4414,0.4542,0.4589,0.4478,0.4487,0.4827,0.4833,0.4838,0.4925,0,0,0,0,0,0,0.3658,0.3697,0.3731,0.3899,0.3953,0.4208,0.4138,0.4164,0.4269,0.4267,0.4366,0.4373,0.4391,0.4527,0.4552,0.4601,0.4495,0.4823,0.483,0.4836,0.4917,0.4932,0.4945,0,0,0,0,0,0.3644,0.3736,0.3731,0.3767,0.3988,0.4214,0.4253,0.4329,0.4276,0.4369,0.4401,0.437,0.4583,0.4541,0.4569,0.4621,0.482,0.4828,0.4835,0.4911,0.4929,0.4944,0,0,0,0,0,0,0.3602,0.3753,0.375,0.3881,0.4038,0.4219,0.4327,0.4351,0.4461,0.4435,0.4454,0.4471,0.4593,0.4613,0.4564,0.4742,0.4683,0.4697,0.4731,0.4749,0.4762,0.4738,0.4504,0,0,0,0,0,0.3602,0.37,0.3858,0.3968,0.405,0.418,0.4278,0.4329,0.4442,0.4485,0.4539,0.4587,0.4661,0.4702,0.4786,0.4917,0.4907,0.4956,0.497,0.4981,0.4981,0.5034,0.5051,0.4865,0.4865,0.4865,0,0,0.3604,0.3713,0.3757,0.3965,0.4087,0.4241,0.4229,0.4403,0.4487,0.4484,0.4615,0.4661,0.471,0.4838,0.489,0.4851,0.503,0.4991,0.5,0.4994,0.5043,0.5061,0.5077,0.487,0.4869,0.4869,0,0,0.3713,0.3771,0.3902,0.4039,0.4236,0.4317,0.4361,0.4544,0.4584,0.4736,0.4719,0.4796,0.4938,0.4972,0.5001,0.5152,0.511,0.5166,0.5215,0.5267,0.5281,0.5294,0.5298,0.5311,0.5162,0.5162,0.5162,0,0.3703,0.3879,0.3984,0.4161,0.4256,0.4341,0.4487,0.4583,0.4763,0.4797,0.4778,0.4959,0.4997,0.511,0.5142,0.5182,0.5184,0.5144,0.5282,0.5294,0.5306,0.5306,0.5319,0.5167,0.5166,0.5166,0.5165,0,0.3916,0.4051,0.4161,0.436,0.4482,0.4642,0.4752,0.4841,0.4861,0.4933,0.5059,0.5131,0.5217,0.5241,0.5238,0.5342,0.5308,0.5298,0.5229,0.5329,0.5324,0.5336,0.5174,0.5172,0.5171,0.517,0,0,0.389,0.4229,0.4261,0.4366,0.4582,0.4706,0.4822,0.4964,0.5013,0.5144,0.5214,0.5343,0.5355,0.5388,0.54,0.5433,0.551,0.5395,0.5395,0.5379,0.5594,0.5385,0.5376,0.5522,0.5525,0.5527,0.5553,0,0.4014,0.4348,0.4451,0.4682,0.4851,0.4905,0.5005,0.5114,0.5175,0.527,0.5318,0.5415,0.5418,0.5445,0.5496,0.5511,0.5546,0.5501,0.5516,0.5515,0.5302,0.5385,0.5117,0.5101,0.5564,0.5565,0.5567,0,0.4171,0.4378,0.4637,0.4842,0.4903,0.4997,0.5103,0.5209,0.5323,0.537,0.5463,0.55,0.5591,0.5555,0.5656,0.5627,0.5622,0.5618,0.5619,0.5397,0.5327,0.5081,0.5104,0.5024,0.5584,0.5582,0.5581,0,0.415,0.4472,0.4658,0.4748,0.5001,0.5033,0.5113,0.5232,0.5277,0.5418,0.5446,0.5594,0.5621,0.5688,0.5701,0.5682,0.5769,0.5742,0.5555,0.5539,0.5297,0.5253,0.5221,0.5806,0.5806,0.5806,0.5806,0,0.4257,0.4402,0.4655,0.4772,0.4881,0.5045,0.5111,0.5204,0.5308,0.5357,0.5486,0.5527,0.565,0.5705,0.5733,0.5676,0.5811,0.5567,0.554,0.5317,0.5277,0.5181,0.5151,0.5807,0.5806,0.5806,0.5806,0,0.4241,0.4434,0.4622,0.4853,0.489,0.4956,0.505,0.5112,0.5231,0.528,0.5313,0.547,0.5536,0.563,0.5715,0.5659,0.549,0.561,0.5312,0.5246,0.4909,0.4892,0.4642,0.4517,0.5372,0.5367,0.5363,0,0.4293,0.4403,0.4604,0.4651,0.4737,0.4838,0.4888,0.5035,0.5081,0.5224,0.5234,0.5328,0.5359,0.5415,0.5362,0.5354,0.5302,0.5076,0.4975,0.4848,0.4815,0.4694,0.4602,0.4703,0.4694,0.4687,0.468,0,0.4326,0.4355,0.45,0.4578,0.4628,0.4677,0.4759,0.4775,0.4933,0.4977,0.5036,0.5071,0.5092,0.4946,0.4923,0.4898,0.4803,0.4909,0.4885,0.436,0.4123,0.4002,0.4723,0.4613,0.462,0.4625,0.4629,0.4631,0.4267,0.4307,0.4429,0.4457,0.4508,0.4488,0.4444,0.4537,0.4552,0.4541,0.4736,0.4666,0.4625,0.4517,0.447,0.4205,0.4274,0.4065,0.408,0.3991,0.3771,0.4302,0.4091,0.4094,0.4097,0.41,0.4102,0,0.4161,0.422,0.4287,0.4297,0.4245,0.4318,0.4321,0.4232,0.416,0.4228,0.4218,0.4087,0.3915,0.3876,0.3648,0.346,0.3347,0.3383,0.3217,0.319,0.3758,0.3632,0.3179,0.3179,0.3179,0.3179,0.3179,0.318,0.4119,0.4134,0.4145,0.401,0.3994,0.3835,0.3777,0.3687,0.3675,0.3509,0.3395,0.341,0.3489,0.335,0.3121,0.3034,0.2879,0.2644,0.2764,0.3245,0.3313,0.3378,0.3258,0.2733,0.2733,0.2048,0.2042,0.2038]},{"header":{"parameterUnit":"m.s-1","parameterCategory":2,"la1":30.2991,"la2":30.254,"lo1":-89.0895,"lo2":-89.0444,"dy":0.0017,"dx":0.0017,"nx":28,"ny":28,"refTime":"2024-06-11T09:00:00:Z","depth":"0","parameterNumber":3,"parameterNumberName":"V-component_of_CURRENTS"},"data":[0,0,0,0,0,0,0,0,0,0,0,0,0,0,0,0,0,0,0,0,0,0,0,0,0,0,0,0,0,0,0,0,0,0,0,0,0,0,0,0,0,0,0,0,0,0,0,0,0,0,0,0,0,0,0,0,0,0,-0.0258,-0.026,0,-0.0366,-0.0366,-0.0367,-0.0395,-0.0395,-0.0395,-0.0395,-0.034,-0.0338,-0.0337,0,0,0,0,0,0,0,0,0,0,0,0,0,-0.0127,-0.0128,-0.0258,-0.026,-0.0262,-0.0365,-0.0366,-0.0367,-0.0395,-0.0395,-0.0395,-0.0395,-0.034,-0.0338,-0.0337,0,0,0,0,0,0,0,0,0,0,0,0,0,-0.0198,-0.0129,-0.0258,-0.0293,-0.0298,-0.0365,-0.0366,-0.0367,-0.0396,-0.0395,-0.0395,-0.0395,-0.0341,-0.0339,-0.0337,-0.0326,0,0,-0.033,-0.0329,0,0,0,0,0,0,0,0,-0.0194,-0.0202,-0.0286,-0.0291,-0.0296,-0.0373,-0.03,-0.0348,-0.0396,-0.0352,-0.0395,-0.0395,-0.034,-0.0338,-0.0352,-0.0323,-0.0321,-0.033,-0.0329,-0.0328,-0.0327,0,0,0,0,0,0,0,-0.0189,-0.0198,-0.0294,-0.0288,-0.0294,-0.0321,-0.033,-0.031,-0.0337,-0.0356,-0.0359,-0.0381,-0.034,-0.0354,-0.035,-0.032,-0.033,-0.0328,-0.0327,-0.0326,-0.0133,-0.0129,0,0,0,0,0,0,-0.0186,-0.0193,-0.0291,-0.0298,-0.0251,-0.0324,-0.0333,-0.0343,-0.0341,-0.0344,-0.0381,-0.0383,-0.0357,-0.0353,-0.0348,-0.0226,-0.0328,-0.0326,-0.0324,-0.0137,-0.0132,-0.0128,0,0,0,0,0,0,-0.0182,-0.0193,-0.0287,-0.0254,-0.0268,-0.0327,-0.0337,-0.0345,-0.0355,-0.0364,-0.0362,-0.0383,-0.0357,-0.0351,-0.0304,-0.0228,-0.0325,-0.0323,-0.0141,-0.0135,-0.013,-0.0051,0,0,0,0,0,0,-0.0178,-0.0191,-0.0194,-0.0253,-0.027,-0.0313,-0.0338,-0.0348,-0.0372,-0.0374,-0.0364,-0.036,-0.0356,-0.0307,-0.0301,-0.0227,-0.0321,-0.0146,-0.0139,-0.0132,-0.0059,-0.0044,-0.0031,0,0,0,0,0,-0.0173,-0.0181,-0.0193,-0.0206,-0.0273,-0.0314,-0.0323,-0.0361,-0.0372,-0.0369,-0.035,-0.036,-0.0255,-0.0303,-0.0298,-0.0221,-0.015,-0.0141,-0.0132,-0.0065,-0.0047,-0.0031,0,0,0,0,0,0,-0.0125,-0.0187,-0.0201,-0.0227,-0.0261,-0.0321,-0.0335,-0.0356,-0.0345,-0.0339,-0.0336,-0.0329,-0.0252,-0.0246,-0.0299,-0.0137,-0.0193,-0.0183,-0.0143,-0.0126,-0.0112,-0.009,-0.0319,0,0,0,0,0,-0.0117,-0.0134,-0.0193,-0.0208,-0.0229,-0.0277,-0.0299,-0.032,-0.0329,-0.0327,-0.0316,-0.0275,-0.0213,-0.0182,-0.0145,-0.0075,-0.0095,-0.0009,0.0005,0.0016,0.0043,0.0065,0.0082,-0.0099,-0.0099,-0.01,0,0,-0.0104,-0.0139,-0.0149,-0.0198,-0.0231,-0.023,-0.0287,-0.0315,-0.0279,-0.0317,-0.0256,-0.0239,-0.0185,-0.0098,-0.0059,-0.0083,0.0055,0.0027,0.0036,0.0057,0.0075,0.0092,0.0107,-0.0094,-0.0095,-0.0096,0,0,-0.0084,-0.0115,-0.0122,-0.0145,-0.0193,-0.0204,-0.0207,-0.0251,-0.0235,-0.0192,-0.0181,-0.0119,-0.006,0.0009,0.0052,0.017,0.012,0.0189,0.0284,0.0305,0.0318,0.0331,0.0298,0.0307,0.0205,0.0205,0.0205,0,-0.0063,-0.0072,-0.0128,-0.0137,-0.0129,-0.0181,-0.0156,-0.015,-0.0159,-0.0104,-0.0152,-0.0008,0.0008,0.017,0.0207,0.0205,0.0176,0.0205,0.0319,0.0331,0.0341,0.0306,0.0314,0.021,0.0209,0.0209,0.0208,0,-0.0046,-0.0047,-0.0052,-0.0054,-0.005,-0.0044,-0.004,-0.0004,0.001,0.003,0.0154,0.0168,0.0265,0.0286,0.0276,0.0403,0.0341,0.0318,0.0261,0.0364,0.032,0.0327,0.0217,0.0215,0.0214,0.0212,0,0,0.0003,-0.003,-0.0025,0.0013,0.0002,0.0028,0.0104,0.0186,0.0284,0.0281,0.0409,0.0491,0.0481,0.0531,0.0532,0.0546,0.0571,0.0463,0.0461,0.0407,0.0568,0.0519,0.052,0.0546,0.0549,0.0551,0.0493,0,0.0049,0.0076,0.0055,0.0144,0.0176,0.019,0.0288,0.0362,0.0417,0.0522,0.056,0.0662,0.0584,0.0631,0.0638,0.06,0.0599,0.0586,0.05,0.0498,0.0422,0.0533,0.0521,0.0469,0.0499,0.05,0.0501,0,0.0087,0.0115,0.0189,0.0293,0.0315,0.0378,0.0563,0.0637,0.076,0.0799,0.0878,0.0876,0.0941,0.083,0.0809,0.0793,0.0695,0.0632,0.0628,0.0568,0.0466,0.0383,0.048,0.0345,0.0512,0.0511,0.051,0,0.0182,0.023,0.0318,0.0338,0.0431,0.0522,0.0604,0.0738,0.0852,0.097,0.1039,0.1089,0.1121,0.1029,0.089,0.0845,0.082,0.0744,0.0609,0.0601,0.0574,0.0561,0.0519,0.0723,0.0723,0.0723,0.0724,0,0.0249,0.0327,0.0376,0.0425,0.0616,0.0633,0.0847,0.0931,0.1057,0.1219,0.1185,0.1297,0.1164,0.1127,0.0964,0.0823,0.088,0.0655,0.061,0.0599,0.0589,0.0454,0.035,0.0721,0.0722,0.0722,0.0722,0,0.0334,0.0341,0.0472,0.0592,0.0654,0.0801,0.0985,0.113,0.1206,0.1402,0.1437,0.1463,0.1408,0.1252,0.1111,0.0935,0.0699,0.0721,0.069,0.0645,0.0368,0.0269,0.0165,0.0108,0.0558,0.0557,0.0556,0,0.0378,0.0433,0.0608,0.0723,0.0786,0.0976,0.1117,0.1222,0.1355,0.1521,0.1621,0.1616,0.1659,0.1416,0.1114,0.084,0.0686,0.0622,0.0552,0.0387,0.0243,0.0173,0.0128,0.0523,0.0522,0.0521,0.052,0,0.0504,0.0557,0.0681,0.0877,0.1043,0.1221,0.1398,0.1515,0.1646,0.1785,0.1936,0.1975,0.1745,0.1484,0.1091,0.0887,0.0514,0.0591,0.0458,0.026,0.015,0.0062,0.0482,0.0512,0.0513,0.0513,0.0514,0.0514,0.0636,0.0748,0.0887,0.1084,0.1249,0.1419,0.1566,0.1725,0.1929,0.2115,0.2149,0.2225,0.1825,0.1296,0.1006,0.0448,0.0437,0.0264,0.0165,0.0117,0.0056,0.0436,0.0397,0.0397,0.0397,0.0398,0.0398,0,0.0808,0.0903,0.1079,0.1289,0.1436,0.1495,0.1724,0.1848,0.2064,0.2254,0.2377,0.2227,0.1732,0.122,0.0449,0.0088,-0.0024,-0.0097,-0.0185,-0.0203,0.0174,0.0169,0.0037,0.0038,0.0038,0.0038,0.0038,0.0038,0.0914,0.109,0.1146,0.1395,0.1518,0.1706,0.1822,0.2005,0.2165,0.236,0.2413,0.2431,0.2034,0.0736,-0.0109,-0.0291,-0.048,-0.0563,-0.0647,-0.0394,-0.0367,-0.0341,-0.0366,-0.0607,-0.0608,-0.096,-0.0964,-0.0967]}],[{"header":{"parameterUnit":"m.s-1","parameterCategory":2,"la1":30.2991,"la2":30.254,"lo1":-89.0895,"lo2":-89.0444,"dy":0.0017,"dx":0.0017,"nx":28,"ny":28,"refTime":"2024-06-11T09:00:00:Z","depth":"2","parameterNumber":2,"parameterNumberName":"U-component_of_CURRENTS"},"data":[0,0,0,0,0,0,0,0,0,0,0,0,0,0,0,0,0,0,0,0,0,0,0,0,0,0,0,0,0,0,0,0,0,0,0,0,0,0,0,0,0,0,0,0,0,0,0,0,0,0,0,0,0,0,0,0,0,0,0.2907,0.2907,0,0.3008,0.301,0.3011,0.3059,0.3059,0.3058,0.3058,0.3273,0.3279,0.3285,0,0,0,0,0,0,0,0,0,0,0,0,0,0.2828,0.2829,0.2906,0.2907,0.2908,0.3008,0.301,0.3012,0.3059,0.3059,0.3058,0.3058,0.3271,0.3278,0.3285,0,0,0,0,0,0,0,0,0,0,0,0,0,0.2893,0.283,0.2906,0.2941,0.2945,0.3008,0.301,0.3012,0.3059,0.3059,0.3058,0.3057,0.3268,0.3277,0.3286,0.3355,0,0,0.3314,0.3318,0,0,0,0,0,0,0,0,0.2889,0.2896,0.2935,0.2939,0.2943,0.3017,0.3061,0.3131,0.3059,0.302,0.3058,0.3057,0.3196,0.3211,0.3235,0.3365,0.3374,0.3315,0.332,0.3324,0.3327,0,0,0,0,0,0,0,0.2884,0.2892,0.2951,0.2936,0.2941,0.2977,0.2986,0.3075,0.3115,0.3023,0.3026,0.3032,0.3199,0.3226,0.3241,0.3377,0.3315,0.3323,0.3328,0.3332,0.3698,0.3702,0,0,0,0,0,0,0.2861,0.2888,0.2947,0.2953,0.291,0.2979,0.2988,0.2997,0.3112,0.3126,0.3032,0.3033,0.3211,0.323,0.3248,0.3506,0.3324,0.3333,0.3338,0.3694,0.3699,0.3704,0,0,0,0,0,0,0.2859,0.2866,0.2943,0.292,0.2931,0.298,0.299,0.2999,0.3029,0.3116,0.3134,0.3052,0.3211,0.3236,0.3335,0.3508,0.3337,0.3345,0.3689,0.3696,0.3702,0.3912,0,0,0,0,0,0,0.2857,0.2865,0.2889,0.2918,0.2932,0.3016,0.2991,0.3002,0.3032,0.3035,0.314,0.3158,0.3212,0.3321,0.3344,0.3517,0.3352,0.3684,0.3692,0.37,0.39,0.3925,0.3947,0,0,0,0,0,0.2854,0.2907,0.289,0.2898,0.2955,0.3018,0.3032,0.3065,0.3033,0.3081,0.3123,0.3155,0.339,0.333,0.3357,0.3537,0.368,0.369,0.3699,0.389,0.392,0.3946,0,0,0,0,0,0,0.2887,0.2917,0.2899,0.2956,0.2989,0.3026,0.3093,0.3065,0.3133,0.3165,0.3184,0.321,0.338,0.3396,0.3328,0.3659,0.3553,0.3568,0.3689,0.3718,0.3741,0.3752,0.336,0,0,0,0,0,0.2898,0.2946,0.2962,0.3007,0.3041,0.3052,0.3083,0.3111,0.3158,0.3186,0.3244,0.3331,0.3442,0.3517,0.3616,0.3774,0.3715,0.391,0.3934,0.3953,0.3978,0.3967,0.3991,0.3735,0.3735,0.3735,0,0,0.2906,0.2942,0.2958,0.3018,0.306,0.3135,0.3075,0.3169,0.3246,0.3206,0.3354,0.3415,0.3492,0.3691,0.3773,0.3729,0.3997,0.3966,0.3983,0.3996,0.3979,0.4004,0.4026,0.3742,0.3741,0.3739,0,0,0.2971,0.3003,0.3067,0.3117,0.3202,0.3234,0.325,0.3316,0.3376,0.3498,0.3509,0.3657,0.3788,0.392,0.3986,0.4188,0.4108,0.4215,0.4374,0.4365,0.4385,0.4402,0.4358,0.4369,0.4243,0.4243,0.4243,0,0.2985,0.3057,0.3096,0.3185,0.3249,0.3269,0.3362,0.3438,0.3524,0.3595,0.3586,0.3846,0.393,0.4169,0.4251,0.4262,0.4172,0.4267,0.4394,0.4409,0.4423,0.4373,0.4383,0.4254,0.4253,0.4252,0.4251,0,0.3068,0.3158,0.3222,0.3332,0.3417,0.3517,0.3614,0.3704,0.3767,0.3838,0.4076,0.42,0.4344,0.4429,0.4409,0.4597,0.4472,0.4408,0.4318,0.4461,0.44,0.4406,0.4271,0.4266,0.4263,0.426,0,0,0.3044,0.323,0.3263,0.3359,0.3513,0.3604,0.3758,0.3907,0.3986,0.4184,0.4311,0.4606,0.4655,0.4729,0.4774,0.4807,0.4859,0.4644,0.4638,0.4592,0.4762,0.4552,0.4536,0.4757,0.4759,0.4762,0.4677,0,0.31,0.3286,0.3368,0.3576,0.3698,0.379,0.3925,0.4084,0.418,0.4312,0.4544,0.4691,0.4775,0.4836,0.4922,0.4847,0.4881,0.4884,0.4636,0.4631,0.442,0.4542,0.424,0.4126,0.4682,0.4683,0.4684,0,0.3179,0.3301,0.3494,0.3735,0.3795,0.3916,0.4119,0.4238,0.4421,0.4493,0.4709,0.4784,0.501,0.4965,0.5061,0.5019,0.4925,0.4864,0.4856,0.4592,0.4433,0.4074,0.4115,0.4693,0.4692,0.4691,0.4691,0,0.3199,0.3426,0.3589,0.3664,0.3901,0.4018,0.4143,0.4318,0.4389,0.4577,0.4606,0.4887,0.4972,0.4989,0.498,0.4954,0.4941,0.4887,0.4642,0.4623,0.4293,0.4241,0.4897,0.4897,0.4897,0.4897,0.4897,0,0.3258,0.3399,0.3617,0.3713,0.3874,0.4084,0.4214,0.4328,0.4475,0.4539,0.4717,0.4778,0.4944,0.4972,0.496,0.4847,0.4956,0.469,0.4603,0.4356,0.4313,0.4741,0.4725,0.4894,0.4895,0.4895,0.4896,0,0.3282,0.339,0.3591,0.3844,0.3889,0.4033,0.4171,0.425,0.4394,0.4449,0.45,0.4672,0.4696,0.4818,0.4794,0.4763,0.4693,0.4602,0.43,0.4179,0.4376,0.4372,0.4317,0.431,0.4303,0.4298,0.4293,0,0.3318,0.3439,0.3647,0.3666,0.3769,0.3925,0.3986,0.4172,0.4212,0.4356,0.4377,0.4445,0.443,0.4407,0.4372,0.4316,0.4478,0.395,0.3898,0.4405,0.4325,0.4331,0.4336,0.3545,0.3534,0.3526,0.3519,0,0.3384,0.3457,0.3551,0.3604,0.3673,0.3709,0.3825,0.3828,0.402,0.4033,0.4047,0.4042,0.4047,0.3858,0.3815,0.3756,0.3957,0.3764,0.4374,0.3734,0.3668,0.3593,0.3624,0.3444,0.3451,0.3457,0.3461,0.3464,0.3388,0.3414,0.3492,0.3504,0.3527,0.3498,0.3464,0.3544,0.3534,0.3532,0.3661,0.3546,0.357,0.3322,0.3205,0.315,0.3407,0.3275,0.3305,0.3344,0.3265,0.3191,0.2861,0.2865,0.2869,0.2872,0.2875,0,0.3371,0.3357,0.3369,0.3323,0.3259,0.3348,0.3327,0.3236,0.3128,0.3173,0.312,0.2816,0.2663,0.2723,0.2503,0.2451,0.2487,0.2357,0.2411,0.2487,0.2554,0.244,0.1814,0.1811,0.1808,0.1805,0,0,0.3305,0.3256,0.3211,0.3033,0.3022,0.2882,0.2833,0.2711,0.2669,0.249,0.2416,0.2559,0.2635,0.2207,0.2133,0.1942,0.2207,0.1859,0.2715,0.2857,0.2921,0.3088,0.2996,0,0,0,0,0]},{"header":{"parameterUnit":"m.s-1","parameterCategory":2,"la1":30.2991,"la2":30.254,"lo1":-89.0895,"lo2":-89.0444,"dy":0.0017,"dx":0.0017,"nx":28,"ny":28,"refTime":"2024-06-11T09:00:00:Z","depth":"2","parameterNumber":3,"parameterNumberName":"V-component_of_CURRENTS"},"data":[0,0,0,0,0,0,0,0,0,0,0,0,0,0,0,0,0,0,0,0,0,0,0,0,0,0,0,0,0,0,0,0,0,0,0,0,0,0,0,0,0,0,0,0,0,0,0,0,0,0,0,0,0,0,0,0,0,0,-0.0173,-0.0174,0,-0.0243,-0.0244,-0.0245,-0.0294,-0.0294,-0.0294,-0.0294,-0.0372,-0.0373,-0.0375,0,0,0,0,0,0,0,0,0,0,0,0,0,-0.0141,-0.0142,-0.0173,-0.0174,-0.0175,-0.0243,-0.0244,-0.0245,-0.0294,-0.0294,-0.0294,-0.0294,-0.0371,-0.0373,-0.0376,0,0,0,0,0,0,0,0,0,0,0,0,0,-0.018,-0.0142,-0.0173,-0.0205,-0.0209,-0.0243,-0.0244,-0.0246,-0.0294,-0.0294,-0.0294,-0.0294,-0.037,-0.0373,-0.0376,-0.039,0,0,-0.0385,-0.0386,0,0,0,0,0,0,0,0,-0.0178,-0.0181,-0.02,-0.0203,-0.0207,-0.0258,-0.0261,-0.0293,-0.0294,-0.0264,-0.0294,-0.0295,-0.0332,-0.0338,-0.0355,-0.0393,-0.0397,-0.0385,-0.0387,-0.0388,-0.0389,0,0,0,0,0,0,0,-0.0175,-0.0179,-0.0204,-0.02,-0.0205,-0.0236,-0.0241,-0.0268,-0.0299,-0.0267,-0.027,-0.0273,-0.0335,-0.0352,-0.0357,-0.0398,-0.0385,-0.0388,-0.0389,-0.039,-0.0374,-0.0372,0,0,0,0,0,0,-0.0157,-0.0176,-0.0201,-0.0206,-0.0189,-0.0236,-0.0242,-0.0243,-0.0298,-0.0306,-0.0273,-0.0275,-0.0347,-0.0353,-0.036,-0.0332,-0.0388,-0.0391,-0.0392,-0.0376,-0.0373,-0.0371,0,0,0,0,0,0,-0.0156,-0.0159,-0.0199,-0.019,-0.0197,-0.0235,-0.0237,-0.0244,-0.0261,-0.0302,-0.0311,-0.0281,-0.0347,-0.0356,-0.0363,-0.0337,-0.0392,-0.0395,-0.0379,-0.0375,-0.0372,-0.0307,0,0,0,0,0,0,-0.0155,-0.0158,-0.0159,-0.0189,-0.0197,-0.0211,-0.0237,-0.0246,-0.0261,-0.0265,-0.0312,-0.0319,-0.0348,-0.0358,-0.0366,-0.0342,-0.0397,-0.0381,-0.0377,-0.0373,-0.0312,-0.0302,-0.0294,0,0,0,0,0,-0.0154,-0.0154,-0.0159,-0.0162,-0.0195,-0.021,-0.0217,-0.0247,-0.0261,-0.0264,-0.0283,-0.0318,-0.0337,-0.0359,-0.0369,-0.0345,-0.0383,-0.0378,-0.0374,-0.0316,-0.0304,-0.0294,0,0,0,0,0,0,-0.014,-0.016,-0.0165,-0.0171,-0.0183,-0.0217,-0.0233,-0.0243,-0.0263,-0.0281,-0.0305,-0.0313,-0.031,-0.0329,-0.0352,-0.0322,-0.036,-0.0357,-0.0313,-0.0302,-0.0293,-0.023,-0.0399,0,0,0,0,0,-0.0135,-0.014,-0.0158,-0.016,-0.0172,-0.0199,-0.0212,-0.0236,-0.0255,-0.0266,-0.0295,-0.0309,-0.0297,-0.0301,-0.0318,-0.0309,-0.0315,-0.0292,-0.0282,-0.0275,-0.0225,-0.0194,-0.0177,-0.0355,-0.0355,-0.0355,0,0,-0.0127,-0.0139,-0.0142,-0.0157,-0.0179,-0.0181,-0.0209,-0.0238,-0.023,-0.0271,-0.0283,-0.0295,-0.0289,-0.0277,-0.0275,-0.0289,-0.024,-0.0268,-0.0262,-0.0216,-0.0187,-0.017,-0.0154,-0.0352,-0.0352,-0.0353,0,0,-0.0104,-0.0131,-0.0122,-0.0129,-0.0157,-0.0184,-0.0185,-0.0226,-0.0237,-0.0249,-0.0253,-0.0222,-0.0264,-0.0214,-0.0198,-0.0138,-0.02,-0.0168,-0.0066,-0.0038,-0.0023,-0.0009,-0.0056,-0.0047,-0.0155,-0.0155,-0.0154,0,-0.0091,-0.0073,-0.012,-0.0108,-0.0104,-0.0175,-0.0155,-0.0182,-0.0215,-0.0172,-0.0249,-0.0186,-0.0211,-0.009,-0.0079,-0.0114,-0.0144,-0.0118,-0.0026,-0.0012,0.0,-0.005,-0.0041,-0.0151,-0.0151,-0.0152,-0.0152,0,-0.0047,-0.0034,-0.0035,-0.0038,-0.0052,-0.0054,-0.0092,-0.0082,-0.0122,-0.0123,-0.0056,-0.0083,-0.001,-0.0031,-0.0049,0.006,-0.0013,-0.0031,-0.0057,0.0022,-0.0038,-0.0029,-0.0146,-0.0147,-0.0148,-0.0149,0,0,-0.0008,0.0002,0.0003,0.0043,-0.0011,-0.0001,0.0017,0.0062,0.0152,0.0072,0.0192,0.019,0.0187,0.0212,0.0198,0.0215,0.0232,0.0127,0.0126,0.0075,0.0229,0.0165,0.0166,0.021,0.0214,0.0216,0.0127,0,0.0053,0.0116,0.0089,0.0149,0.0178,0.0157,0.021,0.0236,0.0239,0.0319,0.0312,0.0374,0.0271,0.0316,0.0318,0.0271,0.0267,0.0255,0.0168,0.0165,0.0096,0.0181,0.0189,0.0112,0.0135,0.0136,0.0137,0,0.0104,0.0151,0.022,0.0311,0.0325,0.035,0.0477,0.0516,0.0605,0.062,0.0674,0.0633,0.0675,0.0551,0.0507,0.0489,0.038,0.0307,0.0301,0.0245,0.0121,0.0051,0.0126,0.0151,0.015,0.0149,0.0148,0,0.0167,0.0246,0.0316,0.0334,0.0408,0.0483,0.0532,0.0628,0.0725,0.0816,0.0876,0.0887,0.0887,0.0786,0.0595,0.0555,0.0499,0.043,0.027,0.0258,0.0261,0.0247,0.0416,0.0416,0.0417,0.0417,0.0417,0,0.0242,0.0307,0.037,0.0412,0.0595,0.0577,0.0771,0.0859,0.0963,0.1095,0.1032,0.1108,0.0941,0.0862,0.0679,0.0495,0.0562,0.0323,0.0267,0.0274,0.0263,0.0307,0.0296,0.0413,0.0414,0.0415,0.0415,0,0.0296,0.0323,0.0445,0.0556,0.0623,0.0751,0.093,0.1066,0.1131,0.1297,0.1318,0.1282,0.1162,0.0967,0.0793,0.0608,0.0444,0.0359,0.0334,0.028,0.0148,0.0141,0.0186,0.0184,0.0182,0.018,0.0179,0,0.0333,0.038,0.0559,0.0687,0.075,0.0933,0.1071,0.1171,0.1287,0.14,0.1472,0.1399,0.1346,0.104,0.0744,0.0442,0.0412,0.0243,0.0204,0.0201,0.0141,0.0137,0.0133,0.0189,0.0188,0.0187,0.0186,0,0.0434,0.0477,0.0613,0.0832,0.0997,0.1185,0.1353,0.1468,0.156,0.1651,0.1701,0.1655,0.1362,0.1056,0.0653,0.0449,0.0294,0.0212,0.0278,0.0248,0.0198,0.0141,0.0138,0.0178,0.0179,0.0179,0.018,0.018,0.0539,0.0669,0.0815,0.1032,0.1207,0.1362,0.1505,0.1622,0.1773,0.185,0.1823,0.1728,0.1422,0.0878,0.055,0.0208,0.0225,0.0087,0.0093,0.0099,0.0118,0.007,0.0023,0.0023,0.0023,0.0023,0.0022,0,0.0699,0.0813,0.1001,0.1234,0.1366,0.1434,0.1641,0.1719,0.184,0.1896,0.1892,0.1561,0.1234,0.0884,0.0371,0.0065,0.0054,-0.0037,0.0022,0.0032,0.0041,0.0059,-0.0054,-0.0055,-0.0056,-0.0056,0,0,0.0807,0.0999,0.1063,0.1298,0.1425,0.1585,0.1681,0.1775,0.1842,0.1844,0.1787,0.171,0.1314,0.0928,0.0528,0.0235,0.0199,0.017,0.0262,0.0389,0.0401,0.0139,0.0182,0,0,0,0,0]}],[{"header":{"parameterUnit":"m.s-1","parameterCategory":2,"la1":30.2991,"la2":30.254,"lo1":-89.0895,"lo2":-89.0444,"dy":0.0017,"dx":0.0017,"nx":28,"ny":28,"refTime":"2024-06-11T09:00:00:Z","depth":"4","parameterNumber":2,"parameterNumberName":"U-component_of_CURRENTS"},"data":[0,0,0,0,0,0,0,0,0,0,0,0,0,0,0,0,0,0,0,0,0,0,0,0,0,0,0,0,0,0,0,0,0,0,0,0,0,0,0,0,0,0,0,0,0,0,0,0,0,0,0,0,0,0,0,0,0,0,0.1344,0.1342,0,0.114,0.1137,0.1134,0.1065,0.1067,0.1068,0.107,0.0926,0.0921,0.0916,0,0,0,0,0,0,0,0,0,0,0,0,0,0.157,0.1567,0.1344,0.1342,0.134,0.1141,0.1137,0.1134,0.1065,0.1067,0.1069,0.107,0.0928,0.0922,0.0916,0,0,0,0,0,0,0,0,0,0,0,0,0,0.1423,0.1565,0.1344,0.1287,0.1281,0.1141,0.1137,0.1133,0.1065,0.1067,0.1069,0.1071,0.093,0.0923,0.0915,0.0821,0,0,0.0891,0.0888,0,0,0,0,0,0,0,0,0.1432,0.1414,0.1298,0.1291,0.1284,0.1137,0.1165,0.1034,0.1064,0.1139,0.107,0.1072,0.1006,0.0992,0.0937,0.0815,0.0809,0.089,0.0885,0.0882,0.088,0,0,0,0,0,0,0,0.1442,0.1422,0.1256,0.1296,0.1287,0.1237,0.1219,0.1138,0.1057,0.1132,0.1129,0.1117,0.1001,0.0944,0.0933,0.0806,0.089,0.0883,0.0879,0.0876,0.0933,0.0938,0,0,0,0,0,0,0.1484,0.1432,0.1262,0.125,0.1373,0.1232,0.1211,0.1176,0.1057,0.1042,0.1115,0.1115,0.0957,0.0943,0.0928,0.1063,0.0882,0.0875,0.087,0.0926,0.0934,0.0941,0,0,0,0,0,0,0.1489,0.147,0.1271,0.1344,0.1317,0.1228,0.1187,0.1171,0.1155,0.1045,0.1031,0.1124,0.0958,0.0939,0.093,0.1048,0.0871,0.0864,0.0919,0.0929,0.0937,0.1172,0,0,0,0,0,0,0.1496,0.1472,0.1461,0.1346,0.1314,0.1207,0.1185,0.1165,0.1145,0.1143,0.1046,0.1032,0.0958,0.0943,0.0923,0.1035,0.0858,0.0911,0.0923,0.0934,0.1157,0.1189,0.1216,0,0,0,0,0,0.1504,0.1446,0.1461,0.1441,0.13,0.1207,0.1184,0.1125,0.1145,0.1123,0.1108,0.1037,0.1006,0.0939,0.0914,0.1027,0.0906,0.092,0.0933,0.1144,0.1182,0.1215,0,0,0,0,0,0,0.1537,0.1432,0.1445,0.1363,0.1318,0.1199,0.114,0.1151,0.1112,0.1126,0.1057,0.1041,0.1088,0.1027,0.0956,0.1092,0.0967,0.0977,0.1136,0.1171,0.12,0.1169,0.0852,0,0,0,0,0,0.1547,0.1478,0.1409,0.1355,0.1313,0.1253,0.1213,0.1203,0.1153,0.1137,0.1102,0.1096,0.1114,0.1119,0.1081,0.1115,0.1087,0.1197,0.1227,0.1252,0.122,0.1372,0.1412,0.0986,0.0986,0.0986,0,0,0.1563,0.1485,0.146,0.1361,0.1292,0.125,0.1229,0.1174,0.1208,0.1128,0.1148,0.1161,0.1142,0.1203,0.1226,0.1174,0.1356,0.127,0.1291,0.1243,0.1391,0.1431,0.1468,0.0996,0.0994,0.0993,0,0,0.151,0.1467,0.1385,0.1352,0.1282,0.1251,0.1263,0.1202,0.1227,0.1258,0.1266,0.1354,0.132,0.1373,0.1391,0.1558,0.1493,0.1592,0.172,0.1873,0.1907,0.1938,0.1932,0.196,0.1627,0.1627,0.1628,0,0.1542,0.1435,0.1359,0.1287,0.128,0.127,0.1248,0.1255,0.1244,0.1315,0.1297,0.1416,0.1406,0.1553,0.1643,0.1622,0.1648,0.1582,0.1909,0.1939,0.1966,0.1953,0.1981,0.164,0.1639,0.1637,0.1636,0,0.1431,0.1385,0.1322,0.125,0.1241,0.1209,0.1238,0.1304,0.137,0.1417,0.1576,0.1594,0.1694,0.1753,0.1736,0.1972,0.1904,0.1915,0.181,0.2023,0.1995,0.202,0.1659,0.1654,0.165,0.1647,0,0,0.1428,0.1277,0.1278,0.1273,0.124,0.123,0.1322,0.1409,0.1546,0.1597,0.1755,0.187,0.1941,0.1969,0.2022,0.2154,0.2381,0.2139,0.2142,0.2111,0.2633,0.2381,0.2381,0.2488,0.2494,0.25,0.2525,0,0.1384,0.1257,0.1227,0.1228,0.1174,0.1269,0.1363,0.1488,0.162,0.177,0.1884,0.2015,0.2012,0.2122,0.2265,0.2337,0.2463,0.2364,0.2445,0.2443,0.218,0.2409,0.252,0.2543,0.2548,0.2552,0.2555,0,0.1293,0.1232,0.1181,0.1237,0.1238,0.1296,0.1527,0.1608,0.1835,0.1962,0.2142,0.2206,0.239,0.2372,0.2593,0.2545,0.2615,0.2649,0.2653,0.2337,0.2239,0.2295,0.2598,0.2595,0.2591,0.2589,0.2586,0,0.1267,0.1229,0.1203,0.121,0.126,0.1373,0.1456,0.1687,0.1832,0.2089,0.2241,0.2422,0.2527,0.267,0.2727,0.2722,0.2906,0.291,0.2722,0.2698,0.2802,0.2769,0.3101,0.3101,0.3101,0.3101,0.3101,0,0.1176,0.1177,0.1216,0.1194,0.1349,0.1372,0.1562,0.1764,0.198,0.2132,0.2332,0.2471,0.2634,0.2737,0.2788,0.2783,0.2974,0.2743,0.2728,0.2894,0.2873,0.2815,0.2782,0.3101,0.3101,0.3101,0.3101,0,0.1073,0.1073,0.1101,0.1213,0.1304,0.1415,0.1622,0.176,0.1991,0.2204,0.229,0.2548,0.2658,0.2746,0.2907,0.2828,0.2866,0.2829,0.2901,0.2887,0.2526,0.2506,0.2625,0.2617,0.2611,0.2605,0.2601,0,0.0972,0.0951,0.1133,0.1256,0.132,0.1464,0.1588,0.1792,0.1909,0.2207,0.2298,0.2491,0.2609,0.2605,0.271,0.2737,0.2733,0.2695,0.2698,0.2524,0.2498,0.2488,0.2476,0.259,0.2588,0.2587,0.2585,0,0.0858,0.0951,0.101,0.1225,0.1405,0.1512,0.1663,0.1745,0.1919,0.215,0.2273,0.2338,0.2419,0.2464,0.2487,0.252,0.2688,0.2626,0.2641,0.2644,0.2482,0.2461,0.2458,0.2562,0.2565,0.2567,0.2569,0,0.0859,0.0938,0.1058,0.1248,0.1436,0.151,0.1578,0.1658,0.178,0.2073,0.2063,0.2248,0.2371,0.235,0.2378,0.2368,0.2357,0.2289,0.2322,0.2348,0.2246,0.1999,0.1937,0,0,0,0,0,0.0863,0.0938,0.1084,0.1264,0.1379,0.1464,0.1627,0.1656,0.1795,0.185,0.1954,0.2017,0.2063,0.2144,0.2084,0.2251,0.2359,0.2167,0.2296,0.2435,0.2461,0.2365,0,0,0,0,0,0,0.0882,0.1016,0.1057,0.1163,0.1243,0.1347,0.1424,0.1524,0.1528,0.17,0.1746,0.187,0.1955,0.2075,0.2039,0.2058,0.209,0.2262,0.2256,0.242,0.2444,0.2465,0.2375,0,0,0,0,0]},{"header":{"parameterUnit":"m.s-1","parameterCategory":2,"la1":30.2991,"la2":30.254,"lo1":-89.0895,"lo2":-89.0444,"dy":0.0017,"dx":0.0017,"nx":28,"ny":28,"refTime":"2024-06-11T09:00:00:Z","depth":"4","parameterNumber":3,"parameterNumberName":"V-component_of_CURRENTS"},"data":[0,0,0,0,0,0,0,0,0,0,0,0,0,0,0,0,0,0,0,0,0,0,0,0,0,0,0,0,0,0,0,0,0,0,0,0,0,0,0,0,0,0,0,0,0,0,0,0,0,0,0,0,0,0,0,0,0,0,0.0122,0.0123,0,0.0247,0.0249,0.0251,0.0291,0.029,0.0289,0.0287,0.038,0.0384,0.0387,0,0,0,0,0,0,0,0,0,0,0,0,0,0.0006,0.0008,0.0122,0.0123,0.0124,0.0247,0.0249,0.0252,0.0291,0.029,0.0288,0.0287,0.0379,0.0383,0.0388,0,0,0,0,0,0,0,0,0,0,0,0,0,0.0092,0.0008,0.0122,0.0154,0.0158,0.0247,0.025,0.0252,0.0291,0.029,0.0288,0.0286,0.0378,0.0383,0.0388,0.0456,0,0,0.0404,0.0407,0,0,0,0,0,0,0,0,0.0087,0.0097,0.0148,0.0152,0.0156,0.0246,0.0242,0.0317,0.0292,0.0247,0.0287,0.0285,0.033,0.0339,0.0376,0.046,0.0464,0.0405,0.0408,0.041,0.0412,0,0,0,0,0,0,0,0.0081,0.0092,0.0178,0.0149,0.0154,0.0192,0.0202,0.0258,0.0301,0.0251,0.0252,0.0257,0.0332,0.0371,0.0378,0.0465,0.0405,0.041,0.0413,0.0415,0.0502,0.0501,0,0,0,0,0,0,0.0051,0.0086,0.0174,0.0181,0.011,0.0195,0.0207,0.0224,0.0301,0.031,0.0259,0.0258,0.0362,0.0372,0.0381,0.0433,0.041,0.0415,0.0418,0.0503,0.0502,0.0501,0,0,0,0,0,0,0.0048,0.0058,0.0169,0.0131,0.0146,0.0197,0.0218,0.0227,0.0257,0.0306,0.0315,0.0276,0.0361,0.0374,0.0422,0.0438,0.0418,0.0423,0.0504,0.0502,0.0501,0.0558,0,0,0,0,0,0,0.0045,0.0057,0.0069,0.0129,0.0147,0.023,0.0219,0.0231,0.026,0.0262,0.0324,0.0332,0.0361,0.0414,0.0427,0.0445,0.0427,0.0505,0.0503,0.0502,0.0557,0.0558,0.056,0,0,0,0,0,0.004,0.0077,0.007,0.008,0.016,0.0231,0.0246,0.0279,0.0262,0.0296,0.0318,0.0329,0.041,0.0419,0.0435,0.0454,0.0506,0.0504,0.0502,0.0556,0.0558,0.056,0,0,0,0,0,0,0.0041,0.0086,0.0079,0.0127,0.0169,0.0235,0.028,0.0279,0.0328,0.033,0.035,0.0362,0.0398,0.0411,0.0419,0.0462,0.0448,0.0449,0.0484,0.0486,0.0487,0.0469,0.0431,0,0,0,0,0,0.0041,0.0077,0.0117,0.0156,0.0184,0.0224,0.0255,0.0276,0.0318,0.0339,0.0366,0.0385,0.0407,0.0434,0.046,0.0514,0.0472,0.0519,0.0521,0.0522,0.0511,0.0446,0.0441,0.0494,0.0494,0.0494,0,0,0.0041,0.0079,0.0092,0.0157,0.0202,0.0259,0.0243,0.0306,0.0341,0.0342,0.0403,0.0402,0.0417,0.0464,0.048,0.0481,0.0487,0.052,0.0522,0.0509,0.0443,0.0438,0.0433,0.0493,0.0493,0.0493,0,0,0.0094,0.0108,0.0166,0.0211,0.0276,0.0297,0.0305,0.0364,0.0384,0.0439,0.0421,0.0414,0.0487,0.0479,0.0487,0.0506,0.0489,0.0517,0.0534,0.0472,0.0467,0.0462,0.0417,0.0408,0.0528,0.0528,0.0528,0,0.0094,0.0173,0.0193,0.0274,0.031,0.0307,0.0374,0.0404,0.0458,0.0468,0.0461,0.0472,0.0485,0.0493,0.0499,0.0512,0.0482,0.054,0.0475,0.047,0.0464,0.0418,0.0408,0.0531,0.053,0.053,0.053,0,0.0192,0.0259,0.0308,0.0388,0.0425,0.0492,0.0515,0.0544,0.0541,0.0546,0.0546,0.0534,0.0535,0.0526,0.0537,0.05,0.0495,0.0481,0.0479,0.0462,0.0415,0.0403,0.0534,0.0533,0.0533,0.0532,0,0,0.0188,0.0342,0.036,0.0423,0.0494,0.0539,0.0587,0.0625,0.0636,0.0639,0.0632,0.063,0.0586,0.0585,0.0559,0.0499,0.0441,0.0488,0.0484,0.0456,0.032,0.0319,0.0305,0.0429,0.0427,0.0425,0.031,0,0.0262,0.0428,0.0467,0.0588,0.0672,0.068,0.0716,0.0736,0.0729,0.0721,0.0656,0.0644,0.0622,0.0609,0.0549,0.0467,0.0409,0.0474,0.0327,0.0323,0.0334,0.029,0.0418,0.0301,0.0298,0.0295,0.0294,0,0.0349,0.0451,0.0599,0.0706,0.0736,0.0786,0.0821,0.085,0.0823,0.0816,0.0767,0.0712,0.0637,0.0597,0.045,0.0502,0.042,0.0336,0.033,0.0296,0.0297,0.0312,0.0271,0.0273,0.0275,0.0276,0.0277,0,0.0373,0.0535,0.0653,0.07,0.0812,0.0859,0.0883,0.0884,0.0907,0.0856,0.0849,0.0744,0.0691,0.0564,0.0432,0.0444,0.0241,0.0237,0.0147,0.0147,0.0161,0.0167,0.0104,0.0104,0.0104,0.0104,0.0105,0,0.0452,0.0549,0.0683,0.0763,0.086,0.0903,0.0951,0.0975,0.0968,0.0969,0.0895,0.0851,0.0678,0.0556,0.043,0.026,0.0249,0.013,0.0106,0.019,0.02,0.0154,0.0161,0.01,0.0101,0.0102,0.0103,0,0.0488,0.0587,0.0725,0.0855,0.0899,0.0959,0.1026,0.104,0.1047,0.1041,0.103,0.0932,0.0773,0.06,0.0369,0.0267,0.0091,0.0031,0.014,0.0128,0.0039,0.005,-0.0087,-0.0088,-0.0089,-0.009,-0.0091,0,0.0526,0.0617,0.0782,0.0846,0.0921,0.0999,0.104,0.1083,0.1096,0.1078,0.1075,0.0944,0.0847,0.0536,0.0347,0.0094,0.0058,-0.0033,-0.0016,0.0023,0.0014,0.0027,0.004,-0.0092,-0.0093,-0.0093,-0.0093,0,0.0576,0.0638,0.0742,0.0879,0.0964,0.1032,0.1103,0.1132,0.1146,0.1162,0.1097,0.0944,0.0757,0.0523,0.033,0.0146,0.0023,-0.0044,-0.0044,-0.0029,0.0015,0.001,0.0023,-0.0097,-0.0096,-0.0096,-0.0096,0,0.0587,0.0648,0.0774,0.0885,0.0983,0.105,0.1083,0.1104,0.1135,0.1145,0.1103,0.0928,0.0821,0.0548,0.0365,0.0191,0.0143,0.0076,0.007,0.0072,0.0154,0.0235,0.0153,0,0,0,0,0,0.0598,0.0666,0.076,0.0886,0.0968,0.1029,0.1116,0.113,0.116,0.1127,0.1132,0.0963,0.0692,0.0568,0.0393,0.033,0.0103,0.0116,0.0021,-0.0117,-0.0113,-0.0044,0,0,0,0,0,0,0.0609,0.0707,0.0754,0.0849,0.0917,0.1008,0.1064,0.1088,0.1073,0.1085,0.0948,0.0901,0.0641,0.0791,0.0382,0.0329,0.0239,0.0001,-0.0003,-0.0119,-0.0116,-0.0112,-0.004,0,0,0,0,0]}]]